When you browse on this site, cookies collect data to enhance your experience and personalize the content and advertising you see.
Visit our Privacy Policy to learn more. By continuing to use the site, you agree to this use of cookies and data.
  • En España
  • Lista de países
  • Para 7 días
  • Temperatura del agua
  • Mapa Satelital
  • El tiempo en el mapa
  • Informadores
  • user-avatar
    Iniciar sesión

    Tiempo cada hora Hobart

    Hoy, 21 Julio, Domingo

    Tiempo Temperatura Precipitaciones Viento Presión Humedad
    00:00 +6°C° 0 mm 5 mps 742 mmHg 83%
    01:00 +7°C° 0 mm 5 mps 742 mmHg 81%
    02:00 +6°C° 0 mm 5 mps 741 mmHg 82%
    03:00 +6°C° 0 mm 5 mps 740 mmHg 83%
    04:00 +6°C° 0 mm 4 mps 740 mmHg 82%
    05:00 +6°C° 0 mm 5 mps 739 mmHg 83%
    06:00 +6°C° 0 mm 5 mps 738 mmHg 84%
    07:00 +6°C° 0 mm 5 mps 737 mmHg 85%
    08:00 +7°C° 0.1 mm 5 mps 737 mmHg 83%
    09:00 +8°C° 0.1 mm 5 mps 737 mmHg 81%
    10:00 +9°C° 0 mm 5 mps 736 mmHg 80%
    11:00 +9°C° 0.1 mm 6 mps 736 mmHg 76%
    12:00 +10°C° 0.1 mm 6 mps 736 mmHg 73%
    13:00 +10°C° 0.1 mm 6 mps 736 mmHg 70%
    14:00 +9°C° 0 mm 6 mps 737 mmHg 68%
    15:00 +9°C° 0 mm 6 mps 738 mmHg 66%
    16:00 +8°C° 0 mm 5 mps 739 mmHg 64%
    17:00 +7°C° 0 mm 5 mps 739 mmHg 69%
    18:00 +6°C° 0 mm 4 mps 740 mmHg 73%
    19:00 +5°C° 0 mm 3 mps 740 mmHg 77%
    20:00 +5°C° 0 mm 3 mps 741 mmHg 79%
    21:00 +5°C° 0 mm 3 mps 741 mmHg 80%
    22:00 +5°C° 0 mm 3 mps 742 mmHg 81%
    23:00 +5°C° 0 mm 3 mps 741 mmHg 83%

    Mañana, 22 Julio, Lunes

    Tiempo Temperatura Precipitaciones Viento Presión Humedad
    00:00 +5°C° 0 mm 3 mps 741 mmHg 84%
    01:00 +5°C° 0 mm 3 mps 741 mmHg 85%
    02:00 +5°C° 0 mm 3 mps 741 mmHg 84%
    03:00 +5°C° 0 mm 3 mps 741 mmHg 84%
    04:00 +5°C° 0 mm 3 mps 741 mmHg 83%
    05:00 +7°C° 0 mm 3 mps 741 mmHg 83%
    06:00 +7°C° 0 mm 3 mps 741 mmHg 83%
    07:00 +7°C° 0 mm 3 mps 741 mmHg 83%
    08:00 +8°C° 0 mm 4 mps 741 mmHg 77%
    09:00 +10°C° 0 mm 4 mps 741 mmHg 72%
    10:00 +12°C° 0 mm 5 mps 741 mmHg 66%
    11:00 +13°C° 0 mm 5 mps 740 mmHg 63%
    12:00 +13°C° 0 mm 5 mps 739 mmHg 60%
    13:00 +14°C° 0 mm 6 mps 739 mmHg 57%
    14:00 +14°C° 0 mm 6 mps 739 mmHg 58%
    15:00 +13°C° 0 mm 6 mps 738 mmHg 59%
    16:00 +11°C° 0 mm 6 mps 738 mmHg 61%
    17:00 +10°C° 0 mm 6 mps 737 mmHg 65%
    18:00 +9°C° 0 mm 6 mps 737 mmHg 70%
    19:00 +8°C° 0 mm 6 mps 737 mmHg 74%
    20:00 +8°C° 0 mm 6 mps 736 mmHg 73%
    21:00 +9°C° 0 mm 5 mps 736 mmHg 72%
    22:00 +9°C° 0 mm 5 mps 736 mmHg 70%
    23:00 +8°C° 0.3 mm 5 mps 736 mmHg 75%

    Pasado mañana, 23 Julio, Martes

    Tiempo Temperatura Precipitaciones Viento Presión Humedad
    00:00 +8°C° 0.3 mm 5 mps 737 mmHg 79%
    01:00 +7°C° 0.3 mm 5 mps 737 mmHg 84%
    02:00 +6°C° 0 mm 5 mps 737 mmHg 84%
    03:00 +6°C° 0 mm 4 mps 737 mmHg 83%
    04:00 +5°C° 0 mm 3 mps 737 mmHg 83%
    05:00 +5°C° 0 mm 3 mps 738 mmHg 84%
    06:00 +4°C° 0 mm 3 mps 738 mmHg 85%
    07:00 +4°C° 0 mm 2 mps 738 mmHg 85%
    08:00 +5°C° 0 mm 3 mps 738 mmHg 80%
    09:00 +7°C° 0 mm 3 mps 738 mmHg 75%
    10:00 +8°C° 0 mm 3 mps 738 mmHg 70%
    11:00 +9°C° 0 mm 3 mps 738 mmHg 65%
    12:00 +9°C° 0 mm 3 mps 738 mmHg 61%
    13:00 +10°C° 0 mm 3 mps 737 mmHg 57%
    14:00 +9°C° 0.2 mm 3 mps 737 mmHg 65%
    15:00 +8°C° 0.2 mm 3 mps 737 mmHg 74%
    16:00 +6°C° 0.2 mm 4 mps 737 mmHg 82%
    17:00 +5°C° 0 mm 3 mps 738 mmHg 84%
    18:00 +4°C° 0 mm 2 mps 738 mmHg 86%
    19:00 +3°C° 0 mm 2 mps 739 mmHg 88%
    20:00 +3°C° 0 mm 2 mps 739 mmHg 87%
    21:00 +4°C° 0 mm 1 mps 739 mmHg 86%
    22:00 +4°C° 0 mm 1 mps 739 mmHg 86%
    23:00 +5°C° 0.2 mm 1 mps 739 mmHg 87%

    24 Julio, Miércoles

    Tiempo Temperatura Precipitaciones Viento Presión Humedad
    00:00 +5°C° 0.2 mm 1 mps 740 mmHg 89%
    01:00 +5°C° 0.2 mm 1 mps 740 mmHg 90%
    02:00 +3°C° 0 mm 2 mps 741 mmHg 92%
    03:00 +3°C° 0 mm 2 mps 741 mmHg 93%
    04:00 +1°C° 0 mm 3 mps 742 mmHg 94%
    05:00 +1°C° 0 mm 3 mps 743 mmHg 93%
    06:00 +1°C° 0 mm 3 mps 744 mmHg 93%
    07:00 +1°C° 0 mm 3 mps 745 mmHg 92%
    08:00 +2°C° 0 mm 3 mps 745 mmHg 86%
    09:00 +4°C° 0 mm 3 mps 746 mmHg 81%
    10:00 +5°C° 0 mm 3 mps 746 mmHg 76%
    11:00 +7°C° 0 mm 3 mps 747 mmHg 72%
    12:00 +7°C° 0 mm 4 mps 747 mmHg 69%
    13:00 +8°C° 0 mm 4 mps 747 mmHg 65%
    14:00 +8°C° 0 mm 4 mps 747 mmHg 68%
    15:00 +8°C° 0 mm 4 mps 747 mmHg 71%
    16:00 +8°C° 0 mm 4 mps 746 mmHg 74%
    17:00 +7°C° 0 mm 4 mps 747 mmHg 78%
    18:00 +8°C° 0 mm 3 mps 747 mmHg 82%
    19:00 +7°C° 0 mm 3 mps 747 mmHg 86%
    20:00 +7°C° 0 mm 3 mps 747 mmHg 86%
    21:00 +8°C° 0 mm 3 mps 748 mmHg 85%
    22:00 +8°C° 0 mm 3 mps 748 mmHg 85%
    23:00 +8°C° 0 mm 3 mps 748 mmHg 85%

    25 Julio, Jueves

    Tiempo Temperatura Precipitaciones Viento Presión Humedad
    00:00 +7°C° 0 mm 3 mps 748 mmHg 85%
    01:00 +7°C° 0 mm 2 mps 748 mmHg 85%
    02:00 +7°C° 0 mm 3 mps 748 mmHg 84%
    03:00 +7°C° 0 mm 3 mps 748 mmHg 84%
    04:00 +8°C° 0 mm 3 mps 748 mmHg 83%
    05:00 +8°C° 0 mm 3 mps 748 mmHg 84%
    06:00 +8°C° 0 mm 3 mps 748 mmHg 84%
    07:00 +8°C° 0 mm 3 mps 748 mmHg 85%
    08:00 +9°C° 0 mm 3 mps 749 mmHg 79%
    09:00 +10°C° 0 mm 3 mps 749 mmHg 74%
    10:00 +12°C° 0 mm 4 mps 749 mmHg 69%
    11:00 +12°C° 0 mm 4 mps 749 mmHg 66%
    12:00 +13°C° 0 mm 4 mps 748 mmHg 63%
    13:00 +13°C° 0 mm 4 mps 748 mmHg 60%
    14:00 +13°C° 0 mm 4 mps 748 mmHg 62%
    15:00 +13°C° 0 mm 3 mps 748 mmHg 63%
    16:00 +12°C° 0 mm 3 mps 747 mmHg 65%
    17:00 +11°C° 0 mm 3 mps 748 mmHg 71%
    18:00 +10°C° 0 mm 3 mps 748 mmHg 77%
    19:00 +8°C° 0 mm 3 mps 748 mmHg 84%
    20:00 +8°C° 0 mm 3 mps 748 mmHg 84%
    21:00 +8°C° 0 mm 3 mps 748 mmHg 84%
    22:00 +8°C° 0 mm 3 mps 748 mmHg 84%
    23:00 +8°C° 0 mm 3 mps 747 mmHg 84%

    26 Julio, Viernes

    Tiempo Temperatura Precipitaciones Viento Presión Humedad
    00:00 +8°C° 0 mm 3 mps 747 mmHg 85%
    01:00 +8°C° 0 mm 3 mps 746 mmHg 85%
    02:00 +9°C° 0.1 mm 3 mps 746 mmHg 86%
    03:00 +9°C° 0.1 mm 3 mps 746 mmHg 87%
    04:00 +8°C° 0.1 mm 4 mps 746 mmHg 88%
    05:00 +9°C° 0.2 mm 3 mps 746 mmHg 88%
    06:00 +9°C° 0.2 mm 3 mps 746 mmHg 88%
    07:00 +9°C° 0.2 mm 3 mps 746 mmHg 89%
    08:00 +9°C° 0.8 mm 3 mps 746 mmHg 90%
    09:00 +9°C° 0.8 mm 3 mps 747 mmHg 91%
    10:00 +9°C° 0.8 mm 3 mps 747 mmHg 93%
    11:00 +9°C° 2.1 mm 3 mps 747 mmHg 94%
    12:00 +8°C° 2.1 mm 2 mps 747 mmHg 95%
    13:00 +8°C° 2.1 mm 2 mps 747 mmHg 96%
    14:00 +8°C° 0.9 mm 2 mps 747 mmHg 96%
    15:00 +9°C° 0.9 mm 1 mps 747 mmHg 96%
    16:00 +9°C° 0.9 mm 1 mps 748 mmHg 96%
    17:00 +9°C° 0.1 mm 1 mps 748 mmHg 95%
    18:00 +7°C° 0.1 mm 2 mps 749 mmHg 95%
    19:00 +7°C° 0.1 mm 2 mps 749 mmHg 94%
    20:00 +7°C° 0 mm 2 mps 749 mmHg 94%
    21:00 +8°C° 0 mm 1 mps 750 mmHg 93%
    22:00 +7°C° 0 mm 1 mps 750 mmHg 93%
    23:00 +7°C° 0 mm 1 mps 750 mmHg 93%
    Mostrar más